Printer-friendly version
Follow the MPC on Twitter Follow the MPC on Facebook The MPC blog
Minor Planet Center

MPEC 2001-A52 : 2001 AV43

The following Minor Planet Electronic Circular may be linked-to from your own Web pages, but must not otherwise be redistributed electronically.

A form allowing access to any MPEC is at the bottom of this page.


Read MPEC 2001-A51 Read MPEC 2001-A53


M.P.E.C. 2001-A52                                Issued 2001 Jan. 13, 21:59 UT

     The Minor Planet Electronic Circulars contain information on unusual
         minor planets and routine data on comets.  They are published
   on behalf of Commission 20 of the International Astronomical Union by the
          Minor Planet Center, Smithsonian Astrophysical Observatory,
                          Cambridge, MA 02138, U.S.A.

             Prepared using the Tamkin Foundation Computer Network

                              MPC@CFA.HARVARD.EDU
          URL http://cfa-www.harvard.edu/iau/mpc.html  ISSN 1523-6714

                                   2001 AV43

Observations:
     K01A43V* C2001 01 05.31690 08 00 26.96 +35 28 10.4          16.8        704
     K01A43V  C2001 01 05.33219 08 00 36.58 +35 26 13.1          17.0        704
     K01A43V  C2001 01 05.34799 08 00 46.33 +35 24 10.2          16.4        704
     K01A43V  C2001 01 05.36285 08 00 55.57 +35 22 13.1          16.4        704
     K01A43V  C2001 01 06.29099 08 12 21.75 +33 31 38.4          17.6        704
     K01A43V  C2001 01 06.29113 08 12 21.75 +33 31 37.6          17.3        704
     K01A43V  C2001 01 06.30178 08 12 26.77 +33 30 30.9          17.3        704
     K01A43V  C2001 01 06.30608 08 12 28.81 +33 30 03.0          18.2        704
     K01A43V  C2001 01 06.30622 08 12 28.89 +33 30 02.3          18.1        704
     K01A43V  C2001 01 06.31657 08 12 33.67 +33 28 57.7          17.5        704
     K01A43V  C2001 01 06.32120 08 12 35.73 +33 28 27.4          17.7        704
     K01A43V  C2001 01 06.32133 08 12 35.86 +33 28 27.2          17.5        704
     K01A43V  C2001 01 06.33125 08 12 40.42 +33 27 23.7          16.9        704
     K01A43V  C2001 01 07.31090 08 21 56.52 +31 48 48.5          18.6        704
     K01A43V  C2001 01 07.32859 08 22 02.70 +31 47 13.7          17.7        704
     K01A43V  C2001 01 07.34355 08 22 07.78 +31 45 52.1          18.0        704
     K01A43V  C2001 01 07.35876 08 22 12.94 +31 44 28.2          18.0        704
     K01A43V  C2001 01 09.82749 08 38 18.99 +28 34 21.3          17.3 R      046
     K01A43V  C2001 01 09.82845 08 38 19.23 +28 34 18.5                      046
     K01A43V  C2001 01 09.82941 08 38 19.47 +28 34 15.1                      046
     K01A43V  C2001 01 09.83016 08 38 19.68 +28 34 12.8                      046
     K01A43V  C2001 01 09.83112 08 38 19.91 +28 34 09.7                      046
     K01A43V  C2001 01 09.90414 08 38 36.58 +28 30 18.8                      118
     K01A43V  C2001 01 09.90598 08 38 36.89 +28 30 13.3                      118
     K01A43V  C2001 01 09.90919 08 38 37.71 +28 30 01.7                      118

Observer details:
046 Klet.  Observer M. Tichy.  0.57-m f/5.2 reflector + CCD.
118 Modra.  Observers L. Kornos, J. Toth.  0.6-m f/5.5 reflector + CCD.
704 Lincoln Laboratory ETS, New Mexico.  Observers M. Blythe, F. Shelly,
    M. Bezpalko, R. Huber, L. Manguso, S. Adams.  Measurers J. Stuart,
    R. Sayer, J. B. Evans, H. Viggh.  1.0-m f/2.15 reflector + CCD.

Orbital elements:
2001 AV43
Epoch 2000 Dec. 22.0 TT = JDT 2451900.5                 Williams
M   9.41740              (2000.0)            P               Q
n   0.68332770     Peri.   41.90309     +0.28079293     -0.95976496
a   1.2765859      Node    31.78962     +0.87927455     +0.25617349
e   0.2381763      Incl.    0.27836     +0.38474874     +0.11500594
P   1.44           H   24.6           G   0.15
From 25 observations 2001 Jan. 5-9.

Ephemeris:
2001 AV43                a,e,i = 1.28, 0.24, 0                   q = 0.9725
Date    TT    R. A. (2000) Decl.     Delta      r     Elong.  Phase     V
2001 01 11    08 43.27   +27 29.6    0.031    1.013   162.4    17.0    18.0
2001 01 16    08 56.63   +24 13.0    0.043    1.025   164.7    14.7    18.6
2001 01 21    09 02.62   +22 19.5    0.055    1.038   168.2    11.2    19.1
2001 01 26    09 05.37   +21 06.7    0.069    1.053   172.2     7.3    19.4
2001 01 31    09 06.67   +20 15.8    0.083    1.068   176.0     3.7    19.7
2001 02 05    09 07.46   +19 37.2    0.098    1.084   176.0     3.7    20.1
2001 02 10    09 08.20   +19 05.6    0.115    1.101   172.1     7.1    20.6
2001 02 15    09 09.15   +18 38.1    0.133    1.118   167.6    10.9    21.2
2001 02 20    09 10.52   +18 12.3    0.153    1.136   163.1    14.7    21.6
2001 02 25    09 12.49   +17 46.9    0.175    1.155   158.7    18.2    22.1
2001 03 02    09 15.19   +17 20.7    0.198    1.173   154.4    21.4    22.5

Gareth V. Williams           (C) Copyright 2001 MPC           M.P.E.C. 2001-A52

Read MPEC 2001-A51 Read MPEC 2001-A53


MPEC number:

Enter an MPEC number in one of the following forms:

  • 1997-B01 (the full form)
  • J97B01 (the packed version of the full form)
  • B01 (the abbreviated form)

Valid HTML 4.01!